Location: Wanzleben
(52.0609°N, 11.4408°E)
Time: 03:27:56
(UTC+00:00)

CENTAUR R/B - Pass Details

Date: 18 September 2020
Orbit: 755 x 1433 km, 63.4° (Epoch: 02 October)

Event Time Altitude Azimuth Distance (km) Brightness Sun altitude
Rises 19:23:07 0° 313° (NW) 4,063 7.2 -18.8°
Reaches altitude 10° 19:25:42 10° 314° (NW) 3,185 6.3 -19.1°
Maximum altitude 19:33:36 85° 228° (SW) 1,357 3.2 -20.2°
Enters shadow 19:38:32 30° 141° (SE) 2,301 3.9 -20.8°
